Regional Weather Roundup
Issued by NWS

Home | Current Version | Previous Version | Text Only | Print | Product List | Glossary Off
Versions: 1 2 3 4 5 6 7 8 9 10 11 12 13 14 15 16 17 18 19 20 21 22 23 24 25 26 27

000
ASUS45 KSLC 181510
RWRUT

UTAH REGIONAL WEATHER ROUNDUP
NATIONAL WEATHER SERVICE SALT LAKE CITY UT
900 AM MDT FRI AUG 18 2017

UTZ001>011-023>025-181600-

NORTHERN UTAH

CITY           SKY/WX    TMP DP  RH WIND       PRES   REMARKS
BRIGHAM CITY   SUNNY     64  41  42 CALM      30.18R
HILL AFB       SUNNY     66  37  33 E17       30.20R
LOGAN          SUNNY     63  42  46 NW6       30.20S
OGDEN          SUNNY     69  38  32 S9        30.17R
SALT LAKE CITY SUNNY     75  45  34 SE8       30.16R
TOOELE VALLEY  SUNNY     75  43  31 SW5       30.18R
WENDOVER       SUNNY     72  40  31 NE3       30.18R
HEBER CITY     SUNNY     55  43  62 CALM      30.29R
WEST JORDAN    SUNNY     72  51  47 SE7       30.20R

$$

UTZ011>015-024>027-181600-

CENTRAL/NORTHEAST UTAH

CITY           SKY/WX    TMP DP  RH WIND       PRES   REMARKS
PROVO AIRPORT  SUNNY     68  46  45 S3        30.22R
MOAB/CANYONLAN SUNNY     76  37  24 SE8       30.16S
DELTA          MOSUNNY   70  36  28 W3        30.20R
PRICE          SUNNY     71  35  26 CALM      30.27R
ROOSEVELT      SUNNY     66  43  42 CALM      30.27S
VERNAL         SUNNY     69  45  41 S5        30.25R

$$

UTZ013>016-019>022-027-181600-

SOUTHERN UTAH

CITY           SKY/WX    TMP DP  RH WIND       PRES   REMARKS
BRYCE CANYON   MOSUNNY   64  41  42 CALM      30.41S
CEDAR CITY     CLOUDY    69  49  48 W5        30.25S
MILFORD        SUNNY     66  40  38 S5        30.22R
ST GEORGE      SUNNY     78  45  30 CALM      30.10R
HANKSVILLE     SUNNY     72  32  23 CALM      30.20R
BLANDING       SUNNY     71  33  24 SE7       30.35R

$$

REGIONAL REPORTS     COLORADO/ARIZONA

CITY           SKY/WX    TMP DP  RH WIND       PRES   REMARKS
CRAIG, CO      SUNNY     60  42  51 CALM      30.33S
GRAND JUNCTION SUNNY     72  40  31 S9        30.22R
RIFLE, CO      SUNNY     64  42  44 NE5       30.29R
MONTROSE, CO   SUNNY     67  38  34 SE3       30.30S
CORTEZ, CO     SUNNY     66  37  34 CALM      30.29R
COLORADO CITY    N/A     70  48  46 CALM      30.24S
PAGE, AZ       SUNNY     77  39  25 N3        30.16R
GRAND CANYON   SUNNY     66  41  40 CALM      30.35R
KINGMAN, AZ    SUNNY     81  38  21 CALM      30.12R
FLAGSTAFF, AZ  SUNNY     64  40  41 CALM      30.37R

$$

REGIONAL REPORTS    NEVADA/IDAHO/WYOMING

CITY           SKY/WX    TMP DP  RH WIND       PRES   REMARKS
LAS VEGAS, NV  MOSUNNY   87  42  20 CALM      30.01R
ELY, NY        SUNNY     60  36  40 S10       30.31S
ELKO, NV       SUNNY     60  33  36 NE3       30.26R
POCATELLO, ID  SUNNY     63  42  46 NW5       30.20R
BURLEY, ID     SUNNY     64  45  49 SW7       30.16R
FORT BRIDGER,    N/A     65  32  30 CALM      30.38S
EVANSTON, WY   SUNNY     60  35  39 S5        30.36R
ROCK SPRINGS,  SUNNY     63  34  33 CALM      30.34R
KEMMERER, WY     N/A     54  36  50 N7        30.37R

$$




USA.gov is the U.S. government's official web portal to all federal, state and local government web resources and services.